GFSFLT2_prec_pwat_159.txt.gz
Precipitable_Water
1.22 1.19 1.15 1.04 0.96 0.89 0.84 0.83 0.82 0.79 0.76 0.71 0.65 0.60 0.61 0.61 0.62 0.66 0.70 0.75 0.82 0.90 0.96 1.04 1.16 1.28 1.34 1.39 1.43 1.47 1.44 1.37
1.07 1.00 0.92 0.88 0.86 0.81 0.75 0.72 0.71 0.69 0.63 0.54 0.52 0.51 0.50 0.52 0.51 0.52 0.53 0.52 0.53 0.56 0.64 0.76 0.87 0.98 1.09 1.25 1.34 1.43 1.46 1.46
0.91 0.86 0.81 0.77 0.73 0.68 0.67 0.66 0.61 0.53 0.48 0.47 0.45 0.46 0.45 0.44 0.46 0.45 0.45 0.45 0.44 0.44 0.45 0.46 0.50 0.58 0.74 0.90 1.07 1.27 1.38 1.43
0.79 0.75 0.71 0.67 0.62 0.61 0.57 0.50 0.46 0.44 0.43 0.42 0.42 0.42 0.42 0.41 0.41 0.41 0.39 0.39 0.39 0.40 0.41 0.41 0.42 0.44 0.46 0.54 0.69 0.80 1.02 1.29
0.68 0.65 0.61 0.58 0.53 0.47 0.44 0.43 0.42 0.42 0.41 0.41 0.40 0.38 0.37 0.35 0.34 0.34 0.33 0.33 0.33 0.34 0.36 0.37 0.39 0.40 0.40 0.43 0.45 0.53 0.66 0.80
0.59 0.57 0.53 0.47 0.44 0.42 0.42 0.40 0.41 0.40 0.38 0.36 0.34 0.32 0.31 0.30 0.30 0.30 0.30 0.31 0.30 0.31 0.32 0.34 0.34 0.35 0.36 0.37 0.38 0.42 0.45 0.56
0.52 0.49 0.45 0.43 0.41 0.42 0.42 0.40 0.37 0.36 0.35 0.36 0.34 0.32 0.30 0.30 0.31 0.31 0.32 0.32 0.32 0.31 0.31 0.31 0.32 0.33 0.34 0.34 0.34 0.35 0.38 0.43
0.46 0.43 0.43 0.43 0.43 0.43 0.41 0.39 0.37 0.37 0.36 0.36 0.36 0.34 0.33 0.33 0.33 0.33 0.33 0.33 0.33 0.32 0.32 0.32 0.31 0.32 0.32 0.34 0.34 0.34 0.35 0.36
0.42 0.43 0.45 0.46 0.45 0.41 0.40 0.40 0.40 0.39 0.39 0.39 0.38 0.37 0.35 0.35 0.34 0.33 0.32 0.32 0.33 0.34 0.36 0.36 0.35 0.35 0.33 0.33 0.33 0.33 0.34 0.35
0.43 0.46 0.48 0.47 0.43 0.41 0.40 0.41 0.41 0.41 0.41 0.40 0.39 0.38 0.36 0.34 0.33 0.31 0.32 0.36 0.38 0.38 0.37 0.36 0.36 0.36 0.35 0.35 0.35 0.35 0.34 0.34
0.45 0.49 0.47 0.45 0.43 0.42 0.42 0.43 0.42 0.42 0.40 0.39 0.38 0.37 0.36 0.34 0.32 0.32 0.37 0.37 0.38 0.39 0.39 0.38 0.37 0.38 0.38 0.38 0.39 0.39 0.38 0.37
0.49 0.48 0.47 0.45 0.44 0.45 0.44 0.43 0.42 0.40 0.39 0.38 0.38 0.36 0.35 0.32 0.31 0.33 0.37 0.35 0.36 0.40 0.40 0.41 0.41 0.41 0.40 0.40 0.42 0.44 0.46 0.46
0.50 0.48 0.46 0.45 0.45 0.44 0.44 0.41 0.39 0.38 0.38 0.38 0.37 0.35 0.32 0.30 0.30 0.32 0.34 0.32 0.35 0.39 0.40 0.40 0.41 0.43 0.40 0.41 0.44 0.50 0.53 0.53
0.52 0.49 0.47 0.47 0.46 0.46 0.45 0.42 0.40 0.39 0.38 0.37 0.36 0.32 0.30 0.29 0.30 0.30 0.30 0.30 0.34 0.39 0.42 0.41 0.43 0.46 0.40 0.41 0.36 0.45 0.52 0.49
0.52 0.50 0.49 0.48 0.48 0.47 0.44 0.43 0.41 0.38 0.36 0.34 0.33 0.31 0.29 0.29 0.29 0.28 0.29 0.31 0.33 0.39 0.43 0.45 0.42 0.47 0.49 0.44 0.37 0.35 0.42 0.52
0.53 0.52 0.51 0.50 0.49 0.46 0.43 0.38 0.36 0.36 0.33 0.32 0.30 0.28 0.27 0.27 0.27 0.27 0.29 0.32 0.34 0.36 0.40 0.44 0.46 0.45 0.51 0.54 0.53 0.50 0.41 0.43
0.53 0.54 0.54 0.53 0.52 0.49 0.44 0.39 0.39 0.36 0.32 0.28 0.26 0.26 0.26 0.26 0.25 0.25 0.27 0.32 0.30 0.31 0.36 0.39 0.47 0.48 0.50 0.51 0.51 0.52 0.53 0.47
0.55 0.55 0.55 0.56 0.54 0.50 0.45 0.41 0.38 0.33 0.27 0.24 0.24 0.25 0.24 0.21 0.21 0.23 0.25 0.25 0.24 0.25 0.29 0.31 0.46 0.51 0.52 0.52 0.50 0.47 0.48 0.49
0.58 0.57 0.56 0.58 0.56 0.52 0.48 0.42 0.37 0.31 0.26 0.24 0.23 0.23 0.21 0.18 0.18 0.20 0.22 0.22 0.22 0.23 0.23 0.28 0.46 0.51 0.53 0.52 0.53 0.51 0.53 0.53
0.56 0.55 0.57 0.58 0.56 0.53 0.48 0.41 0.35 0.31 0.29 0.26 0.23 0.23 0.21 0.18 0.18 0.18 0.20 0.20 0.21 0.21 0.21 0.28 0.34 0.44 0.51 0.53 0.53 0.53 0.53 0.55

GFSFLT2_prec_pwat_162.txt.gz
Precipitable_Water
1.40 1.43 1.39 1.23 1.05 0.97 0.92 0.85 0.80 0.76 0.74 0.72 0.67 0.60 0.58 0.56 0.55 0.54 0.54 0.54 0.56 0.59 0.66 0.75 0.84 0.93 1.01 1.09 1.20 1.30 1.35 1.37
1.23 1.23 1.20 1.07 0.93 0.85 0.79 0.74 0.70 0.67 0.64 0.57 0.49 0.48 0.47 0.47 0.47 0.46 0.46 0.46 0.45 0.45 0.46 0.46 0.45 0.50 0.60 0.77 0.94 1.14 1.29 1.38
1.14 1.08 0.98 0.90 0.82 0.75 0.68 0.63 0.61 0.58 0.51 0.46 0.46 0.46 0.45 0.45 0.43 0.42 0.41 0.40 0.39 0.39 0.40 0.40 0.39 0.42 0.42 0.45 0.52 0.77 0.89 1.11
0.99 0.93 0.85 0.76 0.71 0.68 0.63 0.59 0.54 0.48 0.46 0.45 0.45 0.45 0.41 0.38 0.38 0.35 0.34 0.32 0.33 0.33 0.34 0.34 0.35 0.39 0.39 0.39 0.44 0.50 0.54 0.69
0.92 0.82 0.76 0.70 0.64 0.60 0.56 0.49 0.46 0.44 0.44 0.44 0.41 0.39 0.38 0.36 0.35 0.34 0.35 0.33 0.33 0.33 0.34 0.34 0.35 0.36 0.36 0.37 0.38 0.38 0.41 0.47
0.80 0.72 0.69 0.63 0.59 0.53 0.47 0.43 0.43 0.43 0.41 0.39 0.38 0.36 0.36 0.36 0.36 0.36 0.36 0.36 0.35 0.34 0.33 0.34 0.35 0.36 0.36 0.35 0.37 0.38 0.38 0.39
0.67 0.66 0.60 0.57 0.50 0.47 0.45 0.43 0.43 0.40 0.39 0.40 0.40 0.38 0.38 0.39 0.38 0.38 0.36 0.34 0.34 0.35 0.36 0.37 0.37 0.37 0.38 0.38 0.37 0.38 0.39 0.39
0.63 0.57 0.55 0.48 0.44 0.45 0.45 0.45 0.41 0.40 0.41 0.43 0.44 0.42 0.42 0.40 0.38 0.36 0.35 0.35 0.40 0.39 0.40 0.40 0.40 0.41 0.40 0.40 0.40 0.39 0.39 0.38
0.57 0.51 0.47 0.44 0.43 0.46 0.45 0.41 0.41 0.41 0.43 0.45 0.44 0.44 0.42 0.41 0.38 0.36 0.35 0.40 0.40 0.39 0.40 0.42 0.42 0.42 0.41 0.42 0.42 0.41 0.41 0.41
0.49 0.44 0.45 0.44 0.47 0.46 0.43 0.43 0.43 0.43 0.44 0.44 0.45 0.44 0.43 0.40 0.36 0.35 0.39 0.38 0.38 0.36 0.37 0.38 0.40 0.41 0.40 0.42 0.42 0.44 0.44 0.45
0.45 0.46 0.45 0.47 0.48 0.44 0.44 0.45 0.44 0.44 0.43 0.43 0.45 0.44 0.42 0.38 0.35 0.37 0.37 0.35 0.34 0.34 0.36 0.39 0.38 0.40 0.40 0.41 0.42 0.43 0.44 0.46
0.48 0.47 0.49 0.49 0.47 0.44 0.44 0.45 0.44 0.44 0.42 0.44 0.44 0.43 0.41 0.37 0.36 0.37 0.35 0.33 0.34 0.35 0.37 0.40 0.40 0.41 0.40 0.41 0.43 0.46 0.49 0.51
0.47 0.49 0.51 0.49 0.46 0.44 0.45 0.43 0.43 0.42 0.44 0.45 0.45 0.43 0.40 0.37 0.35 0.34 0.34 0.34 0.35 0.36 0.36 0.34 0.35 0.41 0.40 0.40 0.44 0.48 0.54 0.54
0.49 0.52 0.53 0.51 0.48 0.48 0.48 0.46 0.44 0.44 0.45 0.45 0.44 0.42 0.38 0.34 0.33 0.32 0.35 0.34 0.34 0.33 0.33 0.31 0.33 0.39 0.37 0.38 0.35 0.43 0.53 0.50
0.51 0.53 0.52 0.49 0.48 0.48 0.49 0.49 0.46 0.45 0.43 0.42 0.42 0.39 0.36 0.35 0.33 0.32 0.33 0.33 0.31 0.30 0.31 0.30 0.25 0.34 0.43 0.40 0.34 0.35 0.43 0.53
0.54 0.53 0.50 0.50 0.48 0.48 0.49 0.45 0.42 0.43 0.41 0.39 0.38 0.37 0.36 0.33 0.31 0.30 0.30 0.30 0.28 0.28 0.29 0.27 0.31 0.33 0.41 0.48 0.48 0.48 0.41 0.41
0.55 0.53 0.50 0.49 0.50 0.52 0.52 0.46 0.45 0.44 0.40 0.38 0.37 0.37 0.35 0.30 0.28 0.28 0.27 0.28 0.27 0.28 0.25 0.25 0.32 0.31 0.33 0.40 0.47 0.50 0.51 0.47
0.57 0.53 0.50 0.51 0.54 0.55 0.54 0.50 0.46 0.42 0.39 0.36 0.33 0.33 0.31 0.26 0.24 0.25 0.26 0.27 0.26 0.26 0.24 0.24 0.25 0.25 0.31 0.39 0.46 0.48 0.47 0.46
0.58 0.53 0.50 0.54 0.56 0.58 0.55 0.53 0.48 0.43 0.39 0.35 0.32 0.30 0.28 0.24 0.22 0.23 0.24 0.25 0.25 0.24 0.23 0.23 0.22 0.23 0.32 0.43 0.51 0.52 0.51 0.49
0.58 0.53 0.52 0.59 0.63 0.58 0.56 0.54 0.48 0.43 0.39 0.35 0.32 0.29 0.26 0.24 0.22 0.22 0.23 0.24 0.24 0.23 0.23 0.22 0.22 0.22 0.33 0.45 0.51 0.53 0.53 0.50

GFSFLT2_prec_pwat_165.txt.gz
Precipitable_Water
1.40 1.40 1.37 1.35 1.34 1.17 0.98 0.89 0.84 0.78 0.71 0.68 0.66 0.64 0.55 0.52 0.51 0.50 0.48 0.48 0.48 0.47 0.47 0.47 0.46 0.47 0.52 0.63 0.78 0.94 1.06 1.23
1.33 1.35 1.34 1.32 1.17 0.97 0.84 0.77 0.70 0.64 0.61 0.61 0.62 0.54 0.49 0.47 0.46 0.44 0.43 0.42 0.40 0.39 0.39 0.38 0.36 0.37 0.41 0.41 0.41 0.45 0.66 1.03
1.35 1.35 1.30 1.20 0.95 0.79 0.70 0.65 0.61 0.62 0.62 0.56 0.53 0.50 0.47 0.47 0.41 0.36 0.35 0.34 0.34 0.33 0.33 0.32 0.31 0.35 0.37 0.38 0.34 0.40 0.55 0.70
1.27 1.19 1.12 0.94 0.81 0.75 0.69 0.65 0.63 0.62 0.58 0.50 0.49 0.47 0.40 0.38 0.39 0.37 0.38 0.36 0.37 0.35 0.34 0.34 0.35 0.35 0.35 0.36 0.36 0.39 0.39 0.39
1.17 1.11 0.98 0.82 0.73 0.68 0.64 0.63 0.60 0.55 0.47 0.47 0.45 0.41 0.41 0.42 0.43 0.43 0.43 0.40 0.39 0.38 0.40 0.40 0.41 0.42 0.41 0.41 0.40 0.39 0.38 0.39
1.10 1.04 0.90 0.78 0.69 0.66 0.62 0.58 0.53 0.46 0.45 0.44 0.41 0.41 0.45 0.45 0.44 0.43 0.42 0.39 0.40 0.43 0.42 0.44 0.45 0.46 0.46 0.45 0.46 0.45 0.44 0.43
1.03 0.98 0.84 0.73 0.68 0.65 0.59 0.50 0.45 0.45 0.44 0.43 0.44 0.44 0.45 0.47 0.47 0.45 0.42 0.41 0.43 0.41 0.41 0.41 0.42 0.43 0.45 0.45 0.44 0.45 0.45 0.45
1.00 0.90 0.78 0.70 0.65 0.61 0.53 0.47 0.46 0.45 0.43 0.45 0.47 0.47 0.47 0.45 0.45 0.43 0.42 0.43 0.43 0.42 0.40 0.40 0.42 0.44 0.43 0.45 0.45 0.46 0.46 0.46
0.92 0.80 0.74 0.68 0.60 0.54 0.46 0.44 0.45 0.43 0.45 0.47 0.47 0.47 0.46 0.46 0.45 0.44 0.43 0.43 0.41 0.40 0.40 0.42 0.43 0.43 0.42 0.44 0.46 0.46 0.46 0.47
0.83 0.72 0.68 0.63 0.54 0.47 0.45 0.46 0.43 0.42 0.45 0.47 0.47 0.46 0.47 0.46 0.43 0.44 0.44 0.42 0.40 0.40 0.41 0.40 0.40 0.39 0.39 0.40 0.41 0.45 0.47 0.48
0.72 0.65 0.63 0.55 0.49 0.47 0.47 0.45 0.41 0.43 0.45 0.46 0.47 0.49 0.48 0.46 0.44 0.44 0.43 0.40 0.41 0.41 0.40 0.39 0.36 0.35 0.34 0.34 0.39 0.43 0.45 0.49
0.68 0.66 0.58 0.50 0.48 0.47 0.46 0.43 0.43 0.44 0.44 0.46 0.49 0.49 0.48 0.46 0.44 0.44 0.42 0.41 0.40 0.39 0.36 0.37 0.36 0.34 0.30 0.32 0.36 0.41 0.48 0.51
0.68 0.61 0.53 0.48 0.46 0.45 0.44 0.41 0.43 0.45 0.46 0.49 0.49 0.50 0.49 0.46 0.43 0.41 0.41 0.39 0.39 0.37 0.34 0.32 0.31 0.32 0.31 0.30 0.34 0.42 0.46 0.55
0.67 0.58 0.52 0.49 0.50 0.51 0.50 0.45 0.46 0.46 0.49 0.50 0.49 0.50 0.48 0.44 0.42 0.39 0.40 0.38 0.36 0.34 0.32 0.28 0.29 0.35 0.29 0.26 0.22 0.30 0.44 0.49
0.63 0.56 0.52 0.51 0.54 0.53 0.50 0.48 0.46 0.46 0.48 0.48 0.50 0.50 0.48 0.44 0.41 0.39 0.38 0.36 0.32 0.32 0.31 0.27 0.26 0.30 0.29 0.26 0.22 0.22 0.29 0.46
0.63 0.58 0.55 0.54 0.54 0.49 0.45 0.43 0.44 0.46 0.47 0.49 0.51 0.49 0.46 0.42 0.40 0.38 0.36 0.34 0.31 0.30 0.29 0.28 0.26 0.20 0.25 0.31 0.36 0.37 0.31 0.32
0.64 0.60 0.57 0.55 0.52 0.49 0.48 0.46 0.48 0.47 0.48 0.50 0.49 0.48 0.44 0.38 0.36 0.36 0.34 0.32 0.31 0.30 0.28 0.27 0.26 0.22 0.23 0.30 0.35 0.39 0.43 0.42
0.66 0.61 0.57 0.55 0.51 0.50 0.50 0.49 0.47 0.47 0.49 0.50 0.47 0.45 0.41 0.37 0.34 0.34 0.33 0.30 0.29 0.28 0.28 0.28 0.26 0.23 0.25 0.31 0.31 0.32 0.38 0.43
0.67 0.62 0.56 0.54 0.52 0.52 0.53 0.53 0.52 0.52 0.51 0.49 0.45 0.42 0.38 0.35 0.33 0.31 0.29 0.28 0.28 0.28 0.28 0.26 0.25 0.23 0.23 0.28 0.31 0.34 0.43 0.48
0.67 0.62 0.57 0.54 0.53 0.53 0.56 0.57 0.56 0.55 0.52 0.48 0.43 0.40 0.37 0.35 0.32 0.29 0.28 0.27 0.25 0.26 0.26 0.24 0.25 0.25 0.23 0.26 0.29 0.36 0.42 0.49

GFSFLT2_prec_pwat_171.txt.gz
Precipitable_Water
1.29 1.30 1.32 1.38 1.45 1.50 1.46 1.32 1.15 0.97 0.83 0.71 0.66 0.63 0.61 0.56 0.51 0.45 0.41 0.39 0.38 0.36 0.35 0.36 0.38 0.41 0.40 0.39 0.37 0.39 0.41 0.42
1.24 1.26 1.32 1.38 1.41 1.40 1.30 1.13 0.96 0.80 0.72 0.69 0.67 0.64 0.59 0.50 0.45 0.40 0.37 0.38 0.38 0.39 0.38 0.43 0.39 0.39 0.40 0.39 0.39 0.37 0.35 0.37
1.26 1.28 1.32 1.37 1.34 1.25 1.13 0.98 0.84 0.72 0.67 0.67 0.65 0.58 0.55 0.48 0.41 0.39 0.38 0.42 0.40 0.41 0.43 0.41 0.39 0.40 0.41 0.42 0.41 0.40 0.39 0.38
1.20 1.26 1.31 1.28 1.20 1.09 1.00 0.95 0.83 0.73 0.68 0.63 0.59 0.53 0.49 0.43 0.40 0.41 0.42 0.39 0.41 0.43 0.44 0.41 0.39 0.40 0.42 0.42 0.41 0.42 0.41 0.41
1.16 1.23 1.26 1.14 1.04 1.05 1.01 0.87 0.76 0.71 0.65 0.59 0.57 0.51 0.47 0.41 0.42 0.41 0.40 0.42 0.42 0.43 0.43 0.41 0.41 0.41 0.40 0.39 0.40 0.41 0.42 0.42
1.20 1.22 1.17 1.06 1.12 1.04 0.90 0.78 0.69 0.64 0.60 0.58 0.55 0.47 0.42 0.40 0.41 0.41 0.42 0.45 0.44 0.46 0.45 0.46 0.45 0.45 0.42 0.41 0.41 0.40 0.42 0.42
1.14 1.17 1.12 1.14 1.05 0.95 0.89 0.80 0.71 0.62 0.58 0.56 0.52 0.44 0.38 0.40 0.42 0.43 0.44 0.47 0.47 0.47 0.46 0.45 0.44 0.42 0.40 0.38 0.36 0.37 0.40 0.42
1.13 1.17 1.12 1.07 1.02 0.93 0.87 0.81 0.73 0.64 0.56 0.53 0.48 0.40 0.39 0.41 0.43 0.44 0.44 0.48 0.50 0.48 0.45 0.43 0.40 0.39 0.37 0.37 0.39 0.38 0.40 0.44
1.13 1.21 1.12 1.04 0.97 0.91 0.85 0.80 0.73 0.62 0.55 0.50 0.44 0.39 0.40 0.43 0.45 0.43 0.46 0.51 0.49 0.47 0.44 0.42 0.38 0.37 0.34 0.36 0.34 0.37 0.40 0.44
1.16 1.19 1.11 1.03 0.96 0.92 0.85 0.79 0.70 0.62 0.54 0.49 0.39 0.39 0.42 0.44 0.44 0.43 0.49 0.51 0.48 0.44 0.42 0.39 0.37 0.34 0.31 0.31 0.31 0.37 0.40 0.42
1.09 1.13 1.12 1.06 0.99 0.89 0.81 0.75 0.68 0.61 0.55 0.46 0.38 0.39 0.43 0.44 0.44 0.46 0.50 0.49 0.47 0.45 0.43 0.40 0.36 0.31 0.27 0.26 0.29 0.33 0.38 0.39
1.09 1.10 1.07 1.03 0.96 0.85 0.77 0.70 0.66 0.61 0.53 0.43 0.40 0.41 0.45 0.45 0.46 0.47 0.50 0.49 0.46 0.44 0.40 0.39 0.35 0.29 0.24 0.25 0.29 0.35 0.36 0.39
1.01 1.04 1.03 0.96 0.88 0.78 0.70 0.63 0.62 0.58 0.50 0.44 0.42 0.42 0.45 0.46 0.48 0.47 0.49 0.46 0.45 0.43 0.39 0.35 0.32 0.29 0.23 0.22 0.27 0.33 0.35 0.34
0.94 0.97 0.98 0.93 0.87 0.79 0.70 0.64 0.62 0.57 0.48 0.45 0.44 0.44 0.45 0.46 0.47 0.46 0.48 0.46 0.44 0.41 0.38 0.33 0.31 0.30 0.23 0.24 0.18 0.22 0.28 0.30
0.86 0.89 0.92 0.93 0.85 0.75 0.68 0.65 0.62 0.55 0.45 0.43 0.44 0.45 0.47 0.47 0.48 0.48 0.49 0.46 0.42 0.41 0.37 0.31 0.26 0.28 0.27 0.23 0.18 0.15 0.19 0.24
0.89 0.88 0.84 0.88 0.80 0.71 0.65 0.61 0.55 0.52 0.44 0.44 0.45 0.44 0.46 0.48 0.48 0.47 0.49 0.47 0.42 0.39 0.37 0.32 0.27 0.22 0.25 0.26 0.26 0.24 0.17 0.16
0.92 0.89 0.87 0.82 0.76 0.72 0.67 0.62 0.58 0.53 0.46 0.45 0.44 0.43 0.44 0.46 0.47 0.50 0.50 0.45 0.43 0.38 0.35 0.31 0.28 0.24 0.21 0.21 0.21 0.23 0.25 0.22
0.93 0.89 0.87 0.84 0.76 0.74 0.69 0.64 0.58 0.51 0.47 0.43 0.44 0.45 0.45 0.47 0.50 0.50 0.47 0.44 0.40 0.37 0.34 0.31 0.28 0.26 0.23 0.22 0.21 0.20 0.21 0.23
0.90 0.90 0.86 0.83 0.79 0.76 0.72 0.64 0.59 0.52 0.47 0.45 0.47 0.46 0.48 0.48 0.48 0.48 0.47 0.42 0.38 0.37 0.33 0.31 0.28 0.25 0.23 0.21 0.24 0.25 0.27 0.28
0.86 0.88 0.90 0.87 0.82 0.75 0.71 0.65 0.61 0.56 0.51 0.50 0.49 0.51 0.51 0.48 0.49 0.50 0.44 0.39 0.37 0.35 0.31 0.28 0.28 0.25 0.22 0.21 0.23 0.25 0.29 0.30

GFSFLT2_prec_pwat_177.txt.gz
Precipitable_Water
1.39 1.37 1.34 1.27 1.23 1.22 1.26 1.31 1.36 1.38 1.28 1.09 0.96 0.83 0.73 0.66 0.61 0.56 0.54 0.52 0.49 0.45 0.44 0.43 0.43 0.42 0.41 0.40 0.38 0.36 0.34 0.37
1.37 1.37 1.34 1.32 1.28 1.26 1.30 1.36 1.39 1.33 1.15 0.93 0.76 0.70 0.65 0.62 0.59 0.55 0.53 0.49 0.47 0.43 0.41 0.41 0.43 0.43 0.43 0.42 0.40 0.39 0.38 0.38
1.43 1.39 1.34 1.32 1.29 1.30 1.33 1.37 1.34 1.21 1.01 0.84 0.74 0.67 0.62 0.60 0.61 0.57 0.50 0.48 0.44 0.42 0.42 0.42 0.42 0.44 0.46 0.45 0.43 0.42 0.42 0.42
1.43 1.37 1.35 1.31 1.32 1.29 1.28 1.28 1.21 1.09 0.95 0.83 0.72 0.65 0.63 0.61 0.61 0.53 0.48 0.47 0.42 0.42 0.41 0.42 0.42 0.43 0.43 0.42 0.40 0.39 0.40 0.41
1.35 1.33 1.35 1.31 1.28 1.29 1.24 1.21 1.14 1.04 0.93 0.79 0.73 0.65 0.63 0.59 0.54 0.48 0.46 0.43 0.39 0.39 0.39 0.41 0.42 0.43 0.41 0.39 0.38 0.39 0.41 0.42
1.34 1.35 1.33 1.33 1.30 1.24 1.20 1.12 1.07 0.99 0.91 0.82 0.70 0.64 0.61 0.56 0.51 0.47 0.44 0.42 0.38 0.38 0.39 0.42 0.42 0.41 0.37 0.38 0.39 0.40 0.42 0.44
1.30 1.32 1.30 1.34 1.29 1.20 1.11 1.07 1.04 0.97 0.91 0.83 0.70 0.64 0.60 0.56 0.52 0.48 0.43 0.41 0.38 0.37 0.38 0.40 0.40 0.39 0.41 0.41 0.42 0.42 0.44 0.46
1.28 1.27 1.30 1.28 1.26 1.15 1.07 1.05 1.02 0.95 0.94 0.79 0.70 0.66 0.61 0.56 0.52 0.49 0.44 0.40 0.39 0.38 0.37 0.39 0.40 0.40 0.41 0.43 0.44 0.45 0.46 0.47
1.23 1.20 1.23 1.22 1.19 1.15 1.08 1.04 0.99 0.98 0.91 0.78 0.69 0.67 0.63 0.57 0.53 0.48 0.45 0.41 0.39 0.38 0.38 0.40 0.39 0.41 0.40 0.43 0.43 0.43 0.43 0.45
1.20 1.18 1.14 1.13 1.08 1.06 1.07 1.03 0.98 0.98 0.88 0.76 0.71 0.67 0.63 0.58 0.53 0.48 0.45 0.42 0.39 0.36 0.38 0.38 0.38 0.39 0.38 0.40 0.42 0.43 0.44 0.45
1.15 1.14 1.11 1.10 1.02 1.02 1.04 1.00 0.98 0.93 0.86 0.77 0.72 0.68 0.63 0.57 0.53 0.49 0.44 0.41 0.38 0.37 0.37 0.37 0.37 0.38 0.39 0.42 0.43 0.43 0.43 0.42
1.20 1.18 1.14 1.10 1.03 1.01 0.99 1.00 0.97 0.90 0.83 0.76 0.73 0.68 0.63 0.58 0.54 0.50 0.46 0.40 0.37 0.37 0.36 0.40 0.40 0.40 0.40 0.39 0.40 0.41 0.40 0.39
1.12 1.09 1.11 1.05 0.98 0.95 0.92 0.96 0.95 0.89 0.82 0.75 0.72 0.67 0.64 0.59 0.54 0.50 0.47 0.40 0.38 0.38 0.38 0.39 0.39 0.42 0.39 0.39 0.39 0.41 0.40 0.36
1.07 1.08 1.10 1.05 1.02 1.01 1.00 1.02 1.03 0.95 0.87 0.77 0.72 0.68 0.65 0.60 0.55 0.49 0.47 0.42 0.39 0.38 0.38 0.38 0.40 0.40 0.34 0.33 0.29 0.34 0.35 0.34
1.00 1.07 1.07 1.05 1.02 1.02 1.00 1.00 1.02 0.96 0.87 0.75 0.72 0.66 0.65 0.59 0.56 0.51 0.47 0.43 0.38 0.37 0.38 0.38 0.35 0.38 0.37 0.31 0.25 0.21 0.24 0.31
1.04 1.12 1.12 1.08 1.04 1.02 1.01 0.95 0.88 0.89 0.84 0.76 0.71 0.65 0.62 0.60 0.56 0.51 0.46 0.43 0.40 0.40 0.39 0.37 0.37 0.35 0.36 0.35 0.31 0.27 0.20 0.18
1.01 1.08 1.10 1.07 1.06 1.06 1.03 0.99 0.96 0.92 0.83 0.73 0.66 0.64 0.62 0.58 0.54 0.50 0.47 0.44 0.43 0.42 0.38 0.38 0.41 0.37 0.35 0.32 0.30 0.28 0.26 0.20
1.02 1.03 1.02 1.04 1.08 1.12 1.11 1.03 0.99 0.92 0.81 0.69 0.63 0.60 0.57 0.55 0.54 0.51 0.48 0.45 0.44 0.42 0.42 0.43 0.42 0.40 0.35 0.32 0.27 0.23 0.21 0.21
0.96 0.96 0.97 1.01 1.08 1.12 1.14 1.05 1.01 0.94 0.84 0.70 0.62 0.58 0.57 0.54 0.52 0.50 0.48 0.48 0.48 0.46 0.46 0.47 0.44 0.38 0.34 0.31 0.29 0.26 0.26 0.24
0.90 0.90 0.93 1.01 1.08 1.13 1.10 1.05 1.03 0.95 0.81 0.69 0.60 0.55 0.55 0.54 0.53 0.53 0.51 0.50 0.50 0.50 0.51 0.48 0.45 0.37 0.31 0.29 0.28 0.27 0.27 0.26

GFSFLT2_prec_pwat_180.txt.gz
Precipitable_Water
1.47 1.47 1.47 1.40 1.32 1.25 1.22 1.24 1.23 1.26 1.29 1.26 1.17 1.06 0.93 0.79 0.71 0.67 0.63 0.60 0.53 0.46 0.45 0.43 0.43 0.44 0.43 0.41 0.41 0.39 0.37 0.40
1.54 1.53 1.52 1.51 1.42 1.30 1.28 1.27 1.28 1.30 1.31 1.22 1.07 0.91 0.79 0.72 0.70 0.69 0.67 0.59 0.50 0.46 0.45 0.44 0.44 0.44 0.43 0.43 0.42 0.41 0.40 0.43
1.63 1.55 1.50 1.49 1.41 1.31 1.28 1.30 1.32 1.33 1.28 1.13 0.94 0.80 0.74 0.70 0.68 0.69 0.66 0.56 0.50 0.47 0.45 0.43 0.43 0.45 0.43 0.42 0.42 0.42 0.43 0.46
1.55 1.50 1.42 1.43 1.37 1.33 1.32 1.32 1.31 1.29 1.19 1.01 0.84 0.74 0.71 0.70 0.69 0.66 0.60 0.54 0.52 0.47 0.44 0.42 0.40 0.39 0.40 0.39 0.39 0.41 0.41 0.45
1.46 1.43 1.36 1.35 1.34 1.33 1.31 1.28 1.26 1.23 1.11 0.93 0.82 0.76 0.74 0.70 0.65 0.60 0.54 0.49 0.46 0.44 0.41 0.40 0.39 0.38 0.38 0.39 0.42 0.42 0.43 0.47
1.44 1.43 1.35 1.34 1.35 1.30 1.31 1.25 1.20 1.15 1.05 0.94 0.83 0.77 0.73 0.67 0.59 0.55 0.51 0.50 0.45 0.42 0.41 0.39 0.37 0.38 0.39 0.41 0.44 0.45 0.48 0.56
1.28 1.40 1.35 1.33 1.30 1.28 1.31 1.26 1.16 1.12 1.04 0.94 0.85 0.77 0.70 0.64 0.60 0.57 0.53 0.51 0.47 0.41 0.39 0.38 0.36 0.38 0.42 0.45 0.48 0.53 0.57 0.58
1.19 1.29 1.36 1.36 1.29 1.27 1.29 1.29 1.17 1.11 1.03 0.96 0.86 0.78 0.70 0.64 0.60 0.56 0.54 0.52 0.49 0.43 0.38 0.35 0.35 0.39 0.43 0.49 0.52 0.54 0.52 0.51
1.05 1.23 1.35 1.34 1.28 1.26 1.28 1.24 1.15 1.08 1.04 0.97 0.89 0.80 0.71 0.65 0.61 0.56 0.54 0.52 0.48 0.43 0.39 0.35 0.35 0.40 0.45 0.51 0.51 0.49 0.47 0.46
1.02 1.20 1.30 1.33 1.24 1.23 1.20 1.13 1.09 1.10 1.07 0.99 0.92 0.81 0.74 0.66 0.61 0.57 0.55 0.51 0.47 0.41 0.36 0.34 0.36 0.41 0.46 0.49 0.48 0.47 0.45 0.42
0.92 1.09 1.18 1.28 1.25 1.25 1.18 1.10 1.04 1.08 1.07 0.99 0.94 0.82 0.75 0.68 0.63 0.59 0.55 0.49 0.45 0.43 0.37 0.35 0.37 0.43 0.47 0.48 0.47 0.45 0.42 0.40
0.98 1.01 1.15 1.23 1.26 1.24 1.16 1.08 1.04 1.05 1.04 0.97 0.93 0.82 0.75 0.69 0.66 0.59 0.55 0.48 0.43 0.43 0.38 0.38 0.41 0.44 0.47 0.47 0.47 0.47 0.44 0.40
0.95 0.94 1.05 1.13 1.11 1.06 1.03 0.96 0.97 0.96 0.98 0.95 0.89 0.81 0.75 0.71 0.65 0.59 0.54 0.47 0.43 0.41 0.39 0.38 0.42 0.46 0.45 0.45 0.47 0.48 0.45 0.40
0.95 0.94 0.99 1.07 1.08 1.09 1.07 0.99 0.97 0.96 0.98 1.00 0.92 0.82 0.77 0.73 0.65 0.59 0.53 0.49 0.43 0.41 0.41 0.38 0.41 0.46 0.40 0.43 0.38 0.43 0.43 0.40
0.87 0.91 0.94 1.04 1.07 1.10 1.04 1.02 0.98 0.93 0.91 0.94 0.92 0.86 0.80 0.74 0.66 0.59 0.58 0.50 0.46 0.44 0.40 0.36 0.35 0.40 0.42 0.38 0.33 0.30 0.35 0.38
0.91 0.91 0.93 1.03 1.07 1.07 1.01 0.95 0.89 0.91 0.90 0.94 0.93 0.87 0.82 0.76 0.66 0.58 0.54 0.50 0.47 0.45 0.41 0.39 0.36 0.34 0.40 0.42 0.40 0.36 0.28 0.26
0.91 0.95 0.94 1.03 1.07 1.10 1.10 1.05 1.03 0.99 0.95 0.93 0.93 0.87 0.81 0.74 0.65 0.60 0.53 0.49 0.47 0.42 0.39 0.39 0.38 0.38 0.39 0.40 0.39 0.36 0.33 0.27
0.94 0.93 0.93 0.99 1.03 1.08 1.11 1.08 1.06 1.01 0.96 0.95 0.93 0.87 0.77 0.70 0.62 0.57 0.52 0.51 0.45 0.43 0.42 0.40 0.39 0.40 0.41 0.41 0.38 0.32 0.29 0.26
0.90 0.93 0.88 0.95 0.97 1.03 1.11 1.11 1.13 1.12 1.06 1.02 0.98 0.90 0.78 0.68 0.61 0.56 0.53 0.47 0.45 0.43 0.42 0.41 0.41 0.40 0.42 0.41 0.39 0.35 0.32 0.28
0.82 0.85 0.88 0.92 0.95 0.99 1.06 1.07 1.13 1.09 1.07 1.07 0.99 0.90 0.79 0.68 0.56 0.57 0.51 0.54 0.48 0.45 0.44 0.45 0.45 0.47 0.47 0.45 0.37 0.34 0.32 0.29

GFSFLT2_prec_pwat_183.txt.gz
Precipitable_Water
1.33 1.38 1.39 1.38 1.38 1.33 1.29 1.26 1.25 1.25 1.28 1.31 1.30 1.22 1.10 0.99 0.86 0.76 0.72 0.67 0.63 0.57 0.52 0.50 0.48 0.46 0.44 0.42 0.41 0.41 0.43 0.47
1.42 1.50 1.49 1.50 1.48 1.42 1.36 1.31 1.27 1.25 1.27 1.32 1.28 1.17 1.02 0.90 0.77 0.73 0.68 0.65 0.60 0.55 0.52 0.50 0.49 0.47 0.45 0.44 0.43 0.44 0.45 0.48
1.50 1.54 1.59 1.54 1.50 1.47 1.41 1.32 1.30 1.29 1.29 1.30 1.24 1.10 0.95 0.83 0.77 0.73 0.69 0.65 0.58 0.55 0.52 0.50 0.48 0.47 0.45 0.43 0.42 0.46 0.51 0.55
1.51 1.57 1.58 1.57 1.52 1.48 1.45 1.38 1.33 1.30 1.28 1.27 1.19 1.03 0.89 0.79 0.79 0.74 0.68 0.64 0.59 0.54 0.50 0.47 0.42 0.41 0.41 0.41 0.42 0.46 0.52 0.59
1.49 1.57 1.62 1.57 1.46 1.45 1.45 1.38 1.29 1.28 1.25 1.23 1.12 0.97 0.89 0.82 0.80 0.73 0.69 0.63 0.55 0.51 0.47 0.44 0.42 0.39 0.40 0.42 0.45 0.48 0.54 0.64
1.36 1.55 1.58 1.56 1.48 1.40 1.36 1.29 1.25 1.27 1.21 1.13 1.04 0.96 0.87 0.79 0.74 0.69 0.62 0.57 0.52 0.51 0.48 0.45 0.42 0.42 0.43 0.45 0.49 0.57 0.63 0.68
1.14 1.31 1.42 1.49 1.46 1.39 1.33 1.28 1.26 1.28 1.18 1.06 1.04 0.97 0.85 0.75 0.70 0.65 0.61 0.58 0.54 0.51 0.49 0.45 0.42 0.43 0.46 0.48 0.53 0.57 0.59 0.62
1.06 1.15 1.28 1.37 1.42 1.40 1.35 1.33 1.30 1.30 1.20 1.06 1.02 0.97 0.88 0.77 0.72 0.64 0.60 0.58 0.55 0.52 0.49 0.44 0.44 0.46 0.48 0.52 0.54 0.54 0.54 0.53
0.99 1.09 1.20 1.26 1.38 1.43 1.41 1.34 1.33 1.30 1.19 1.11 1.02 1.01 0.91 0.82 0.75 0.65 0.62 0.59 0.56 0.52 0.48 0.46 0.45 0.48 0.49 0.52 0.52 0.52 0.51 0.51
0.99 1.04 1.12 1.17 1.25 1.40 1.45 1.37 1.32 1.27 1.19 1.11 1.07 1.04 0.95 0.87 0.76 0.66 0.63 0.58 0.54 0.50 0.46 0.44 0.46 0.48 0.48 0.50 0.52 0.51 0.51 0.49
0.97 1.01 1.03 1.12 1.19 1.35 1.36 1.39 1.32 1.25 1.18 1.08 1.07 1.07 0.99 0.91 0.78 0.68 0.65 0.59 0.54 0.49 0.47 0.45 0.46 0.48 0.48 0.51 0.52 0.50 0.49 0.49
0.97 0.98 1.01 1.05 1.13 1.21 1.26 1.31 1.31 1.23 1.12 1.08 1.03 1.05 0.99 0.94 0.78 0.69 0.63 0.60 0.55 0.50 0.46 0.47 0.48 0.47 0.47 0.49 0.50 0.50 0.50 0.50
0.94 0.93 0.95 0.98 0.97 1.00 1.08 1.06 1.13 1.12 1.07 1.06 1.06 1.05 1.01 0.93 0.79 0.70 0.64 0.57 0.53 0.48 0.48 0.45 0.46 0.49 0.45 0.46 0.49 0.50 0.50 0.50
0.93 0.92 0.94 0.95 0.98 1.00 1.07 1.09 1.10 1.13 1.12 1.05 1.04 1.03 1.01 0.93 0.79 0.70 0.63 0.63 0.53 0.47 0.48 0.46 0.46 0.49 0.43 0.43 0.40 0.45 0.48 0.50
0.82 0.87 0.94 0.96 1.01 1.02 1.05 1.09 1.07 1.05 1.07 1.01 1.00 1.00 0.98 0.95 0.82 0.71 0.63 0.63 0.50 0.49 0.49 0.47 0.45 0.50 0.45 0.40 0.35 0.36 0.43 0.48
0.87 0.90 0.92 0.95 1.03 0.97 0.94 0.93 0.90 0.99 1.02 1.03 1.00 1.01 1.00 0.97 0.85 0.72 0.70 0.78 0.63 0.50 0.58 0.48 0.46 0.42 0.44 0.41 0.41 0.41 0.38 0.37
0.85 0.97 0.96 0.96 0.98 0.98 0.95 0.97 1.05 1.08 1.05 1.06 1.02 1.00 0.98 0.95 0.87 0.72 0.69 0.61 0.53 0.52 0.49 0.48 0.47 0.41 0.39 0.38 0.40 0.41 0.40 0.37
0.79 0.87 0.93 0.98 0.99 0.99 0.94 0.99 1.00 1.00 1.06 1.04 1.03 0.99 0.95 0.91 0.86 0.73 0.67 0.87 0.59 0.52 0.50 0.47 0.43 0.41 0.40 0.40 0.40 0.36 0.35 0.37
0.77 0.80 0.83 0.91 0.95 0.98 0.98 1.03 1.04 1.03 1.08 1.10 1.06 0.98 0.95 0.93 0.89 0.76 0.68 0.63 0.54 0.54 0.46 0.46 0.41 0.42 0.42 0.42 0.42 0.43 0.44 0.40
0.79 0.81 0.81 0.84 0.88 0.93 0.99 1.06 1.06 1.11 1.12 1.15 1.12 1.01 1.00 0.97 0.91 0.84 0.74 0.56 0.53 0.46 0.45 0.45 0.44 0.41 0.44 0.48 0.47 0.48 0.46 0.37

GFSFLT2_prec_pwat_189.txt.gz
Precipitable_Water
1.51 1.43 1.35 1.30 1.25 1.26 1.26 1.27 1.28 1.26 1.26 1.27 1.33 1.34 1.36 1.34 1.28 1.16 1.04 0.97 0.84 0.72 0.64 0.57 0.53 0.47 0.42 0.39 0.40 0.52 0.61 0.71
1.52 1.48 1.44 1.38 1.33 1.29 1.30 1.33 1.33 1.33 1.33 1.34 1.36 1.36 1.35 1.34 1.25 1.13 1.02 0.90 0.77 0.69 0.62 0.56 0.52 0.49 0.44 0.40 0.41 0.53 0.63 0.76
1.46 1.52 1.47 1.45 1.47 1.42 1.39 1.40 1.40 1.39 1.37 1.37 1.37 1.37 1.33 1.29 1.24 1.11 0.98 0.85 0.75 0.70 0.61 0.56 0.52 0.49 0.47 0.50 0.56 0.62 0.71 0.82
1.31 1.40 1.40 1.44 1.48 1.52 1.53 1.49 1.50 1.44 1.39 1.38 1.36 1.37 1.31 1.26 1.22 1.10 0.93 0.83 0.75 0.69 0.61 0.55 0.55 0.50 0.50 0.55 0.62 0.68 0.78 0.88
1.17 1.29 1.43 1.48 1.43 1.52 1.53 1.60 1.54 1.50 1.44 1.41 1.38 1.35 1.28 1.17 1.19 1.08 0.92 0.83 0.75 0.68 0.59 0.59 0.61 0.56 0.57 0.61 0.63 0.73 0.90 0.85
1.20 1.22 1.30 1.40 1.51 1.57 1.56 1.57 1.58 1.51 1.48 1.44 1.38 1.31 1.19 1.13 1.13 1.04 0.94 0.82 0.75 0.67 0.60 0.63 0.62 0.62 0.62 0.62 0.66 0.87 0.83 0.78
1.16 1.21 1.23 1.33 1.39 1.52 1.63 1.60 1.63 1.60 1.53 1.49 1.42 1.28 1.17 1.13 1.10 1.02 0.98 0.89 0.81 0.71 0.69 0.65 0.64 0.65 0.65 0.69 0.75 0.83 0.81 0.78
1.18 1.17 1.20 1.32 1.38 1.41 1.50 1.65 1.66 1.65 1.56 1.50 1.47 1.32 1.18 1.12 1.07 1.01 1.00 0.90 0.82 0.76 0.72 0.68 0.66 0.68 0.72 0.73 0.75 0.78 0.75 0.71
1.01 1.13 1.13 1.19 1.25 1.38 1.45 1.44 1.54 1.51 1.54 1.51 1.48 1.34 1.20 1.13 1.08 1.01 0.92 0.89 0.84 0.78 0.75 0.71 0.70 0.73 0.72 0.71 0.69 0.69 0.69 0.68
0.91 1.16 1.14 1.09 1.14 1.26 1.37 1.34 1.35 1.37 1.48 1.52 1.52 1.42 1.24 1.16 1.04 0.96 0.92 0.88 0.86 0.79 0.74 0.72 0.70 0.71 0.68 0.66 0.64 0.63 0.64 0.63
0.82 1.03 1.09 1.14 1.15 1.20 1.27 1.32 1.32 1.32 1.35 1.43 1.47 1.49 1.31 1.18 1.04 0.99 0.96 0.91 0.88 0.80 0.74 0.73 0.70 0.69 0.66 0.64 0.63 0.61 0.62 0.62
0.81 0.95 1.20 1.15 1.19 1.20 1.20 1.21 1.25 1.28 1.28 1.29 1.42 1.44 1.34 1.23 1.10 1.04 1.02 0.92 0.86 0.80 0.74 0.76 0.73 0.69 0.63 0.61 0.62 0.60 0.63 0.62
0.69 0.84 1.01 1.15 1.09 1.07 1.08 1.02 1.08 1.14 1.24 1.26 1.29 1.36 1.36 1.28 1.13 1.07 1.04 0.93 0.88 0.84 0.77 0.75 0.73 0.69 0.62 0.58 0.60 0.71 0.63 0.61
0.65 0.75 0.88 1.12 1.04 1.07 1.11 1.09 1.09 1.11 1.15 1.20 1.22 1.29 1.28 1.23 1.15 1.09 1.06 0.94 0.91 0.86 0.80 0.76 0.73 0.69 0.57 0.53 0.51 0.57 0.59 0.60
0.63 0.73 0.83 0.96 1.15 1.05 1.05 1.11 1.09 1.03 1.04 1.06 1.11 1.21 1.23 1.21 1.19 1.12 1.12 1.01 0.96 0.92 0.85 0.78 0.69 0.68 0.64 0.53 0.50 0.49 0.52 0.58
0.65 0.68 0.77 0.92 1.18 1.10 0.93 0.84 0.80 0.93 1.02 1.08 1.04 1.08 1.14 1.22 1.18 1.12 1.15 1.05 1.01 0.98 0.94 0.83 0.74 0.64 0.67 0.66 0.66 0.69 0.54 0.49
0.72 0.72 0.74 0.85 1.05 1.18 1.04 0.95 0.91 0.92 0.97 1.00 1.07 1.06 1.07 1.15 1.16 1.08 1.06 1.09 1.00 0.97 0.93 0.87 0.76 0.65 0.59 0.61 0.64 0.69 0.63 0.56
0.70 0.70 0.72 0.78 0.88 1.09 1.12 1.02 1.00 0.95 0.92 0.88 0.99 1.05 1.07 1.07 1.17 1.11 1.05 1.01 0.98 1.03 0.92 0.85 0.75 0.65 0.61 0.61 0.58 0.56 0.63 0.58
0.62 0.66 0.64 0.73 0.79 0.92 1.10 1.10 1.09 1.03 0.97 0.92 0.94 1.00 1.01 1.03 1.06 1.11 1.03 0.99 0.99 0.99 0.98 0.84 0.76 0.66 0.62 0.64 0.65 0.63 0.68 0.58
0.59 0.63 0.60 0.65 0.74 0.78 0.91 1.06 1.07 1.08 1.06 1.00 0.97 1.00 1.06 1.10 1.08 1.06 1.04 1.00 0.99 0.97 0.94 0.82 0.71 0.69 0.63 0.68 0.78 0.82 0.67 0.57

GFSFLT2_prec_pwat_195.txt.gz
Precipitable_Water
1.34 1.51 1.50 1.39 1.35 1.34 1.39 1.40 1.41 1.43 1.42 1.38 1.35 1.29 1.25 1.22 1.23 1.23 1.22 1.15 1.01 0.91 0.78 0.64 0.52 0.45 0.40 0.45 0.67 0.86 0.94 0.93
1.25 1.36 1.61 1.56 1.43 1.40 1.39 1.42 1.40 1.38 1.39 1.39 1.32 1.30 1.31 1.24 1.23 1.24 1.21 1.17 1.03 0.89 0.73 0.61 0.50 0.42 0.38 0.40 0.69 0.91 0.92 0.93
1.22 1.26 1.40 1.58 1.50 1.45 1.42 1.40 1.40 1.41 1.39 1.40 1.37 1.29 1.27 1.25 1.26 1.25 1.23 1.17 1.04 0.87 0.72 0.62 0.49 0.44 0.40 0.57 0.75 0.87 0.85 0.84
1.20 1.19 1.17 1.34 1.46 1.47 1.45 1.43 1.43 1.40 1.38 1.38 1.38 1.35 1.29 1.28 1.30 1.28 1.25 1.19 1.05 0.86 0.73 0.63 0.51 0.45 0.45 0.64 0.80 0.87 0.85 0.83
1.20 1.22 1.21 1.14 1.17 1.31 1.36 1.36 1.39 1.40 1.41 1.39 1.41 1.38 1.36 1.36 1.34 1.32 1.27 1.20 1.08 0.87 0.73 0.64 0.54 0.51 0.63 0.73 0.88 0.89 0.87 0.85
1.21 1.26 1.21 1.18 1.15 1.13 1.17 1.23 1.31 1.31 1.35 1.39 1.39 1.37 1.44 1.40 1.37 1.32 1.28 1.22 1.08 0.88 0.70 0.67 0.62 0.62 0.66 0.81 0.90 0.91 0.90 0.89
1.12 1.20 1.22 1.23 1.17 1.15 1.16 1.19 1.22 1.27 1.33 1.42 1.41 1.40 1.41 1.41 1.35 1.30 1.27 1.26 1.11 0.91 0.72 0.75 0.73 0.68 0.69 0.80 0.87 0.92 0.91 0.90
1.10 1.15 1.15 1.18 1.18 1.21 1.22 1.24 1.26 1.30 1.32 1.33 1.38 1.48 1.48 1.42 1.40 1.34 1.28 1.27 1.18 0.97 0.74 0.78 0.77 0.76 0.73 0.81 0.87 0.91 0.92 0.92
0.93 0.95 1.05 1.08 1.16 1.24 1.30 1.35 1.35 1.33 1.37 1.37 1.37 1.40 1.46 1.41 1.39 1.35 1.35 1.30 1.20 1.04 0.82 0.83 0.78 0.79 0.80 0.89 0.90 0.91 0.90 0.89
0.91 1.08 1.11 1.15 1.17 1.24 1.28 1.32 1.34 1.33 1.36 1.38 1.37 1.34 1.39 1.33 1.33 1.32 1.33 1.33 1.21 1.09 0.95 0.85 0.79 0.79 0.84 0.92 0.93 0.92 0.91 0.88
0.87 1.11 1.13 1.18 1.27 1.31 1.33 1.37 1.37 1.38 1.38 1.41 1.38 1.38 1.40 1.34 1.26 1.23 1.28 1.25 1.19 1.14 1.07 0.98 0.84 0.83 0.85 0.91 0.94 0.92 0.89 0.84
0.76 0.93 1.14 1.26 1.32 1.36 1.35 1.31 1.32 1.35 1.33 1.36 1.38 1.42 1.41 1.32 1.31 1.24 1.28 1.11 1.09 1.11 1.09 1.09 0.96 0.88 0.85 0.87 0.90 0.92 0.89 0.82
0.70 0.73 0.84 1.02 1.14 1.13 1.19 1.23 1.32 1.36 1.36 1.35 1.33 1.34 1.38 1.39 1.38 1.29 1.18 1.08 1.05 1.04 1.08 1.05 1.03 0.96 0.85 0.81 0.85 0.88 0.83 0.85
0.57 0.61 0.67 0.70 0.79 0.86 1.05 1.11 1.18 1.29 1.35 1.37 1.37 1.40 1.33 1.34 1.37 1.32 1.24 1.15 1.01 1.00 1.01 1.05 1.01 0.97 0.83 0.79 0.70 0.77 0.80 0.81
0.65 0.64 0.61 0.61 0.68 0.69 0.82 1.08 1.19 1.16 1.22 1.28 1.44 1.38 1.38 1.37 1.33 1.29 1.31 1.21 1.10 0.99 1.03 1.04 0.94 0.94 0.91 0.76 0.67 0.62 0.74 0.83
0.65 0.65 0.63 0.58 0.60 0.61 0.60 0.62 0.69 0.90 1.04 1.17 1.17 1.26 1.35 1.36 1.38 1.38 1.24 1.25 1.11 1.08 1.05 1.03 1.02 0.88 0.88 0.86 0.79 0.72 0.67 0.69
0.62 0.64 0.64 0.65 0.59 0.53 0.53 0.52 0.57 0.63 0.71 0.80 0.93 1.07 1.12 1.23 1.35 1.28 1.30 1.31 1.13 1.12 1.10 1.04 1.02 0.97 0.86 0.85 0.80 0.74 0.74 0.71
0.56 0.58 0.59 0.63 0.65 0.65 0.57 0.51 0.54 0.56 0.58 0.59 0.63 0.75 0.91 0.99 1.07 1.19 1.33 1.21 1.26 1.08 1.12 1.05 1.06 1.00 0.94 0.87 0.79 0.72 0.70 0.71
0.56 0.56 0.55 0.59 0.60 0.62 0.66 0.58 0.52 0.51 0.47 0.49 0.53 0.56 0.64 0.72 0.85 0.92 1.09 1.18 1.25 1.23 1.09 1.08 1.13 1.00 0.98 0.94 0.88 0.79 0.77 0.72
0.49 0.51 0.53 0.55 0.55 0.56 0.53 0.53 0.55 0.50 0.46 0.46 0.48 0.53 0.61 0.69 0.76 0.80 0.90 0.97 1.14 1.25 1.15 1.08 1.12 1.07 1.01 1.00 0.94 0.84 0.82 0.75